DAL864 TXKF-MTPP

Flight info

Callsign DAL864
Flight time N/A
Altitude 36000
Route SOMRR1 ANTIG M328 TASNI/M079F350 L455 MCOOP/M079F360 M594 MLLER/N0462F360 M594 CERDA A554 GTK G444 BOTES/N0404F240 G444 SEPTO DCT SEDET SEDET1D
Aircraft A321/M-SDE3FGHIRWY/LB1

Departure

Time 2026-05-08 17:42
Airport L.F. Wade International Airport (TXKF)

Arrival

Time N/A
Airport Toussaint Louverture International Airport (MTPP)
Time Latitude Longitude Altitude Speed Heading
2026-05-08 17:13 32.36213 -64.70308 6 ft 0 kts 246°
2026-05-08 17:32 32.36215 -64.70304 4 ft 4 kts 256°
2026-05-08 17:32 32.36220 -64.70298 7 ft 4 kts 231°
2026-05-08 17:33 32.36237 -64.70273 4 ft 4 kts 232°
2026-05-08 17:33 32.36253 -64.70247 6 ft 4 kts 232°
2026-05-08 17:33 32.36271 -64.70223 5 ft 4 kts 223°
2026-05-08 17:33 32.36291 -64.70207 4 ft 4 kts 179°
2026-05-08 17:34 32.36298 -64.70207 7 ft 0 kts 158°
2026-05-08 17:35 32.36281 -64.70192 7 ft 7 kts 136°
2026-05-08 17:35 32.36283 -64.70115 4 ft 13 kts 70°
2026-05-08 17:36 32.36328 -64.69989 4 ft 20 kts 67°
2026-05-08 17:36 32.36389 -64.69817 5 ft 26 kts 67°
2026-05-08 17:36 32.36463 -64.69607 4 ft 28 kts 67°
2026-05-08 17:36 32.36536 -64.69400 4 ft 27 kts 67°
2026-05-08 17:37 32.36606 -64.69205 5 ft 25 kts 67°
2026-05-08 17:37 32.36671 -64.69021 5 ft 23 kts 66°
2026-05-08 17:37 32.36713 -64.68849 5 ft 21 kts 99°
2026-05-08 17:37 32.36686 -64.68685 6 ft 20 kts 101°
2026-05-08 17:38 32.36658 -64.68522 5 ft 21 kts 102°
2026-05-08 17:38 32.36628 -64.68353 5 ft 21 kts 101°
2026-05-08 17:38 32.36598 -64.68178 5 ft 22 kts 101°
2026-05-08 17:38 32.36567 -64.67993 5 ft 23 kts 101°
2026-05-08 17:39 32.36534 -64.67802 5 ft 24 kts 101°
2026-05-08 17:39 32.36500 -64.67601 5 ft 25 kts 102°
2026-05-08 17:39 32.36462 -64.67392 5 ft 26 kts 102°
2026-05-08 17:39 32.36425 -64.67175 6 ft 27 kts 102°
2026-05-08 17:40 32.36386 -64.66951 8 ft 28 kts 101°
2026-05-08 17:40 32.36349 -64.66725 6 ft 27 kts 101°
2026-05-08 17:40 32.36309 -64.66501 7 ft 27 kts 106°
2026-05-08 17:40 32.36251 -64.66349 7 ft 15 kts 135°
2026-05-08 17:41 32.36157 -64.66355 8 ft 12 kts 233°
2026-05-08 17:41 32.36166 -64.66489 7 ft 30 kts 281°
2026-05-08 17:41 32.36252 -64.66994 7 ft 93 kts 281°
2026-05-08 17:41 32.36415 -64.67945 5 ft 140 kts 281°
2026-05-08 17:42 32.36648 -64.69194 178 ft 162 kts 280°
2026-05-08 17:42 32.36921 -64.70487 746 ft 161 kts 280°
2026-05-08 17:42 32.37123 -64.71766 1397 ft 155 kts 277°
2026-05-08 17:42 32.37312 -64.72989 1987 ft 150 kts 278°
2026-05-08 17:43 32.37507 -64.74208 2458 ft 152 kts 277°
2026-05-08 17:43 32.37709 -64.75433 2958 ft 152 kts 277°
2026-05-08 17:43 32.37916 -64.76657 3470 ft 153 kts 278°
2026-05-08 17:43 32.38130 -64.77899 4021 ft 155 kts 278°
2026-05-08 17:44 32.38336 -64.79161 4541 ft 158 kts 277°
2026-05-08 17:44 32.38481 -64.80492 4875 ft 169 kts 272°
2026-05-08 17:44 32.38513 -64.81923 5245 ft 180 kts 268°
2026-05-08 17:44 32.38470 -64.83469 5473 ft 195 kts 267°
2026-05-08 17:45 32.38406 -64.85095 5861 ft 199 kts 266°
2026-05-08 17:45 32.38334 -64.86739 6291 ft 202 kts 267°
2026-05-08 17:45 32.38255 -64.88405 6699 ft 203 kts 267°
2026-05-08 17:45 32.38174 -64.90082 7096 ft 205 kts 267°
2026-05-08 17:46 32.38091 -64.91776 7513 ft 208 kts 267°
2026-05-08 17:46 32.38005 -64.93477 8069 ft 208 kts 267°
2026-05-08 17:46 32.37918 -64.95196 8597 ft 211 kts 267°
2026-05-08 17:46 32.37829 -64.96921 9148 ft 215 kts 266°
2026-05-08 17:47 32.37737 -64.98710 9596 ft 224 kts 267°
2026-05-08 17:47 32.37640 -65.00595 10129 ft 229 kts 267°
2026-05-08 17:47 32.37541 -65.02484 10522 ft 242 kts 267°
2026-05-08 17:47 32.37469 -65.03869 10619 ft 257 kts 267°
2026-05-08 17:48 32.37313 -65.06855 10790 ft 287 kts 267°
2026-05-08 17:48 32.37205 -65.09265 10921 ft 307 kts 268°
2026-05-08 17:48 32.37173 -65.11830 11354 ft 315 kts 270°
2026-05-08 17:48 32.37182 -65.14435 11968 ft 318 kts 270°
2026-05-08 17:49 32.37204 -65.17089 12620 ft 320 kts 271°
2026-05-08 17:49 32.37225 -65.19692 13278 ft 321 kts 271°
2026-05-08 17:49 32.37240 -65.22339 13908 ft 323 kts 270°
2026-05-08 17:49 32.37250 -65.25011 14474 ft 325 kts 270°
2026-05-08 17:50 32.37254 -65.27733 15050 ft 328 kts 270°
2026-05-08 17:50 32.37252 -65.30402 15617 ft 330 kts 270°
2026-05-08 17:50 32.37246 -65.33115 16219 ft 330 kts 270°
2026-05-08 17:50 32.37239 -65.35843 16779 ft 333 kts 270°
2026-05-08 17:51 32.37234 -65.38626 17325 ft 335 kts 270°
2026-05-08 17:51 32.37231 -65.41356 17842 ft 338 kts 270°
2026-05-08 17:51 32.37226 -65.44144 18344 ft 340 kts 270°
2026-05-08 17:51 32.37220 -65.46953 18780 ft 343 kts 270°
2026-05-08 17:52 32.37212 -65.49787 19201 ft 345 kts 270°
2026-05-08 17:52 32.37206 -65.52672 19633 ft 347 kts 270°
2026-05-08 17:52 32.37191 -65.58425 20462 ft 352 kts 270°
2026-05-08 17:53 32.37182 -65.61330 20873 ft 354 kts 270°
2026-05-08 17:53 32.37173 -65.64253 21325 ft 356 kts 270°
2026-05-08 17:53 32.37164 -65.67181 21743 ft 358 kts 270°
2026-05-08 17:53 32.37160 -65.70133 22142 ft 360 kts 270°
2026-05-08 17:54 32.37166 -65.73102 22529 ft 362 kts 270°
2026-05-08 17:54 32.37178 -65.76092 22906 ft 365 kts 270°
2026-05-08 17:54 32.37195 -65.79107 23280 ft 367 kts 270°
2026-05-08 17:54 32.37210 -65.82136 23631 ft 369 kts 270°
2026-05-08 17:55 32.37219 -65.85184 23943 ft 372 kts 270°
2026-05-08 17:55 32.37221 -65.88247 24260 ft 374 kts 270°
2026-05-08 17:55 32.37220 -65.90282 24472 ft 375 kts 270°
2026-05-08 17:55 32.37222 -65.94423 24914 ft 377 kts 270°
2026-05-08 17:56 32.37224 -65.96476 25151 ft 378 kts 270°
2026-05-08 17:56 32.37229 -65.99594 25480 ft 379 kts 270°
2026-05-08 17:56 32.37235 -66.02719 25793 ft 381 kts 270°
2026-05-08 17:56 32.37240 -66.05867 26106 ft 383 kts 270°
2026-05-08 17:57 32.37243 -66.09028 26418 ft 385 kts 270°
2026-05-08 17:57 32.37243 -66.12205 26702 ft 387 kts 270°
2026-05-08 17:57 32.37242 -66.15404 26976 ft 390 kts 270°
2026-05-08 17:57 32.37239 -66.18622 27271 ft 392 kts 270°
2026-05-08 17:58 32.37237 -66.21861 27572 ft 394 kts 270°
2026-05-08 17:58 32.37233 -66.25110 27868 ft 396 kts 270°
2026-05-08 17:58 32.37228 -66.28373 28176 ft 397 kts 270°
2026-05-08 17:58 32.37219 -66.31647 28461 ft 399 kts 270°
2026-05-08 17:59 32.37208 -66.34935 28732 ft 401 kts 270°
2026-05-08 17:59 32.37192 -66.38237 29000 ft 402 kts 270°
2026-05-08 17:59 32.37181 -66.41549 29266 ft 404 kts 270°
2026-05-08 17:59 32.37032 -66.44878 29522 ft 406 kts 263°
2026-05-08 18:00 32.36378 -66.48137 29769 ft 410 kts 253°
2026-05-08 18:00 32.33636 -66.54130 30255 ft 419 kts 241°
2026-05-08 18:00 32.32041 -66.57010 30581 ft 418 kts 241°
2026-05-08 18:01 32.30452 -66.59877 30946 ft 416 kts 242°
2026-05-08 18:01 32.28871 -66.62725 31321 ft 414 kts 242°
2026-05-08 18:01 32.27296 -66.65557 31672 ft 412 kts 242°
2026-05-08 18:01 32.25723 -66.68383 32026 ft 410 kts 242°
2026-05-08 18:02 32.24164 -66.71187 32384 ft 408 kts 242°
2026-05-08 18:02 32.22610 -66.73989 32703 ft 407 kts 242°
2026-05-08 18:02 32.21060 -66.76786 33027 ft 406 kts 243°
2026-05-08 18:02 32.19517 -66.79568 33365 ft 405 kts 243°
2026-05-08 18:03 32.17974 -66.82344 33711 ft 403 kts 243°
2026-05-08 18:03 32.16440 -66.85102 34038 ft 402 kts 243°
2026-05-08 18:03 32.14908 -66.87855 34321 ft 400 kts 243°
2026-05-08 18:03 32.13383 -66.90591 34611 ft 399 kts 243°
2026-05-08 18:04 32.11862 -66.93316 34929 ft 396 kts 243°
2026-05-08 18:04 32.10350 -66.96028 35215 ft 395 kts 243°
2026-05-08 18:04 32.08845 -66.98731 35489 ft 394 kts 243°
2026-05-08 18:04 32.07344 -67.01422 35751 ft 392 kts 243°
2026-05-08 18:05 32.05849 -67.04111 35942 ft 392 kts 244°
2026-05-08 18:05 32.04359 -67.06796 35973 ft 390 kts 244°
2026-05-08 18:05 32.01411 -67.12104 36001 ft 389 kts 244°
2026-05-08 18:06 31.98438 -67.17435 35995 ft 389 kts 244°
2026-05-08 18:06 31.95470 -67.22762 36012 ft 389 kts 243°
2026-05-08 18:07 31.92498 -67.28071 35996 ft 388 kts 243°
2026-05-08 18:07 31.89536 -67.33364 36002 ft 387 kts 244°
2026-05-08 18:08 31.86578 -67.38666 36001 ft 388 kts 243°
2026-05-08 18:08 31.83599 -67.43962 35968 ft 388 kts 243°
2026-05-08 18:09 31.80616 -67.49266 35988 ft 389 kts 243°
2026-05-08 18:09 31.77631 -67.54581 36002 ft 390 kts 243°
2026-05-08 18:10 31.74638 -67.59892 36010 ft 390 kts 243°
2026-05-08 18:10 31.71640 -67.65198 36013 ft 389 kts 243°
2026-05-08 18:11 31.68647 -67.70495 36013 ft 389 kts 243°
2026-05-08 18:11 31.65655 -67.75790 35990 ft 389 kts 243°
2026-05-08 18:12 31.62657 -67.81089 35990 ft 390 kts 243°
2026-05-08 18:12 31.59649 -67.86382 35994 ft 390 kts 243°
2026-05-08 18:13 31.56636 -67.91681 36000 ft 390 kts 243°
2026-05-08 18:13 31.53621 -67.96976 36004 ft 390 kts 243°
2026-05-08 18:14 31.50604 -68.02273 36012 ft 390 kts 243°
2026-05-08 18:14 31.47618 -68.07583 36013 ft 389 kts 245°
2026-05-08 18:15 31.44886 -68.13035 36016 ft 387 kts 247°
2026-05-08 18:15 31.42245 -68.18526 36017 ft 387 kts 247°
2026-05-08 18:16 31.39572 -68.23998 36026 ft 387 kts 246°
2026-05-08 18:16 31.36880 -68.29406 36024 ft 387 kts 246°
2026-05-08 18:17 31.34164 -68.34838 36026 ft 387 kts 246°
2026-05-08 18:17 31.31439 -68.40307 36027 ft 386 kts 246°
2026-05-08 18:18 31.28737 -68.45742 36028 ft 386 kts 246°
2026-05-08 18:18 31.26048 -68.51133 35990 ft 387 kts 246°
2026-05-08 18:19 31.23321 -68.56581 36008 ft 388 kts 246°
2026-05-08 18:19 31.20589 -68.62022 36015 ft 388 kts 246°
2026-05-08 18:20 31.17854 -68.67459 36020 ft 388 kts 246°
2026-05-08 18:20 31.15120 -68.72893 36022 ft 388 kts 246°
2026-05-08 18:21 31.12386 -68.78326 36023 ft 388 kts 246°
2026-05-08 18:21 31.09654 -68.83760 36025 ft 388 kts 246°
2026-05-08 18:22 31.06917 -68.89192 35998 ft 388 kts 246°
2026-05-08 18:22 31.04166 -68.94627 36006 ft 389 kts 246°
2026-05-08 18:23 31.01414 -69.00062 36012 ft 389 kts 246°
2026-05-08 18:23 30.98659 -69.05501 36017 ft 390 kts 246°
2026-05-08 18:24 30.95900 -69.10937 36021 ft 390 kts 246°
2026-05-08 18:24 30.93042 -69.16320 36023 ft 396 kts 238°
2026-05-08 18:25 30.91031 -69.18585 36024 ft 411 kts 224°
2026-05-08 18:25 30.88468 -69.20210 36006 ft 430 kts 209°
2026-05-08 18:25 30.85489 -69.20981 36004 ft 451 kts 192°
2026-05-08 18:25 30.82293 -69.20701 36001 ft 471 kts 178°
2026-05-08 18:26 30.75843 -69.19163 35992 ft 475 kts 177°
2026-05-08 18:26 30.69364 -69.17586 35998 ft 476 kts 177°
2026-05-08 18:27 30.63968 -69.16295 36008 ft 477 kts 177°
2026-05-08 18:27 30.56352 -69.14497 35992 ft 478 kts 177°
2026-05-08 18:28 30.49832 -69.12951 36008 ft 479 kts 177°
2026-05-08 18:28 30.43301 -69.11403 36021 ft 479 kts 177°
2026-05-08 18:29 30.36768 -69.09867 36027 ft 479 kts 177°
2026-05-08 18:29 30.30233 -69.08336 36009 ft 479 kts 176°
2026-05-08 18:30 30.23691 -69.06796 36019 ft 480 kts 176°
2026-05-08 18:30 30.17183 -69.05274 36040 ft 480 kts 176°
2026-05-08 18:31 30.10640 -69.03736 36045 ft 480 kts 176°
2026-05-08 18:31 30.04086 -69.02203 36023 ft 480 kts 176°
2026-05-08 18:32 29.97536 -69.00680 36038 ft 480 kts 176°
2026-05-08 18:32 29.90983 -68.99147 36036 ft 481 kts 176°
2026-05-08 18:33 29.84423 -68.97614 36052 ft 481 kts 176°
2026-05-08 18:33 29.77865 -68.96088 36014 ft 481 kts 176°
2026-05-08 18:34 29.71302 -68.94561 36023 ft 481 kts 176°
2026-05-08 18:34 29.64728 -68.93039 36033 ft 482 kts 176°
2026-05-08 18:35 29.58148 -68.91520 36041 ft 482 kts 176°
2026-05-08 18:35 29.51569 -68.89993 36049 ft 482 kts 176°
2026-05-08 18:36 29.44995 -68.88463 36039 ft 482 kts 175°
2026-05-08 18:36 29.38414 -68.86934 36048 ft 483 kts 175°
2026-05-08 18:37 29.31828 -68.85418 36053 ft 482 kts 175°
2026-05-08 18:37 29.25246 -68.83913 36059 ft 482 kts 175°
2026-05-08 18:38 29.19775 -68.82662 36041 ft 482 kts 175°
2026-05-08 18:38 29.13191 -68.81145 36059 ft 482 kts 175°
2026-05-08 18:39 29.06611 -68.79621 36061 ft 482 kts 175°
2026-05-08 18:39 29.00029 -68.78106 36063 ft 482 kts 175°
2026-05-08 18:40 28.93451 -68.76602 36066 ft 482 kts 175°
2026-05-08 18:40 28.86868 -68.75103 36069 ft 482 kts 175°
2026-05-08 18:41 28.80291 -68.73606 36068 ft 482 kts 175°
2026-05-08 18:41 28.73707 -68.72102 36067 ft 482 kts 175°
2026-05-08 18:42 28.67130 -68.70608 36067 ft 482 kts 175°
2026-05-08 18:42 28.60546 -68.69113 36053 ft 482 kts 175°
2026-05-08 18:43 28.53969 -68.67616 36061 ft 482 kts 175°
2026-05-08 18:43 28.47383 -68.66123 36065 ft 482 kts 175°
2026-05-08 18:44 28.40802 -68.64629 36066 ft 482 kts 175°
2026-05-08 18:44 28.34219 -68.63147 36052 ft 482 kts 174°
2026-05-08 18:45 28.27633 -68.61662 36065 ft 482 kts 174°
2026-05-08 18:45 28.21050 -68.60168 36068 ft 483 kts 174°
2026-05-08 18:46 28.14462 -68.58681 36070 ft 483 kts 174°
2026-05-08 18:46 28.07913 -68.57210 36058 ft 483 kts 174°
2026-05-08 18:47 28.01283 -68.55723 36063 ft 483 kts 174°
2026-05-08 18:47 27.94690 -68.54248 36068 ft 483 kts 174°
2026-05-08 18:48 27.88099 -68.52768 36071 ft 483 kts 174°
2026-05-08 18:48 27.81504 -68.51279 36077 ft 483 kts 174°
2026-05-08 18:49 27.74952 -68.49807 36061 ft 483 kts 174°
2026-05-08 18:49 27.68353 -68.48335 36067 ft 483 kts 174°
2026-05-08 18:50 27.61708 -68.46852 36075 ft 483 kts 174°
2026-05-08 18:50 27.55106 -68.45389 36077 ft 483 kts 174°
2026-05-08 18:51 27.48507 -68.43925 36069 ft 483 kts 173°
2026-05-08 18:51 27.41949 -68.42463 36072 ft 484 kts 173°
2026-05-08 18:52 27.35343 -68.40997 36078 ft 484 kts 174°
2026-05-08 18:52 27.28740 -68.39534 36079 ft 484 kts 173°
2026-05-08 18:53 27.22132 -68.38064 36066 ft 484 kts 173°
2026-05-08 18:53 27.15522 -68.36603 36072 ft 484 kts 173°
2026-05-08 18:54 27.08918 -68.35151 36073 ft 484 kts 173°
2026-05-08 18:54 27.02305 -68.33688 36079 ft 484 kts 173°
2026-05-08 18:55 26.92388 -68.31497 36071 ft 484 kts 173°
2026-05-08 18:56 26.85779 -68.30037 36079 ft 484 kts 173°
2026-05-08 18:56 26.79169 -68.28590 36082 ft 484 kts 173°
2026-05-08 18:57 26.72566 -68.27145 36080 ft 484 kts 173°
2026-05-08 18:57 26.65959 -68.25692 36081 ft 484 kts 173°
2026-05-08 18:58 26.59355 -68.24247 36077 ft 484 kts 173°
2026-05-08 18:58 26.52752 -68.22800 36080 ft 483 kts 173°
2026-05-08 18:59 26.46144 -68.21362 36081 ft 483 kts 173°
2026-05-08 18:59 26.39548 -68.19920 36085 ft 483 kts 173°
2026-05-08 19:00 26.32944 -68.18481 36075 ft 483 kts 172°
2026-05-08 19:00 26.26345 -68.17049 36086 ft 483 kts 172°
2026-05-08 19:01 26.19760 -68.15612 36089 ft 482 kts 172°
2026-05-08 19:01 26.13176 -68.14179 36088 ft 482 kts 172°
2026-05-08 19:02 26.06592 -68.12746 36087 ft 482 kts 172°
2026-05-08 19:02 26.00054 -68.11334 36086 ft 481 kts 172°
2026-05-08 19:03 25.93474 -68.09914 36085 ft 481 kts 172°
2026-05-08 19:03 25.86858 -68.08477 36085 ft 481 kts 172°
2026-05-08 19:04 25.80284 -68.07055 36081 ft 481 kts 172°
2026-05-08 19:04 25.73711 -68.05638 36075 ft 481 kts 172°
2026-05-08 19:05 25.67141 -68.04227 36082 ft 481 kts 172°
2026-05-08 19:05 25.60575 -68.02815 36083 ft 480 kts 172°
2026-05-08 19:06 25.54011 -68.01396 36086 ft 480 kts 172°
2026-05-08 19:06 25.47454 -67.99986 36085 ft 480 kts 172°
2026-05-08 19:07 25.40888 -67.98578 36080 ft 480 kts 172°
2026-05-08 19:07 25.34335 -67.97177 36081 ft 480 kts 172°
2026-05-08 19:08 25.27773 -67.95772 36076 ft 480 kts 172°
2026-05-08 19:08 25.21258 -67.94388 36078 ft 480 kts 172°
2026-05-08 19:09 25.14698 -67.92984 36070 ft 480 kts 172°
2026-05-08 19:09 25.08141 -67.91575 36070 ft 480 kts 172°
2026-05-08 19:10 25.01577 -67.90170 36072 ft 480 kts 172°
2026-05-08 19:10 24.95012 -67.88778 36075 ft 481 kts 172°
2026-05-08 19:11 24.88442 -67.87384 36081 ft 481 kts 172°
2026-05-08 19:11 24.81875 -67.85990 36073 ft 481 kts 172°
2026-05-08 19:12 24.75297 -67.84599 36076 ft 481 kts 172°
2026-05-08 19:12 24.68719 -67.83198 36073 ft 481 kts 172°
2026-05-08 19:13 24.62145 -67.81795 36085 ft 481 kts 172°
2026-05-08 19:13 24.55559 -67.80406 36084 ft 481 kts 172°
2026-05-08 19:14 24.49016 -67.79031 36081 ft 482 kts 171°
2026-05-08 19:14 24.42430 -67.77642 36074 ft 482 kts 171°
2026-05-08 19:15 24.35841 -67.76346 36065 ft 479 kts 179°
2026-05-08 19:15 24.32530 -67.76379 36065 ft 473 kts 191°
2026-05-08 19:15 24.29337 -67.77117 36065 ft 467 kts 202°
2026-05-08 19:15 24.26372 -67.78501 36062 ft 460 kts 214°
2026-05-08 19:16 24.23743 -67.80442 36048 ft 453 kts 225°
2026-05-08 19:16 24.19667 -67.85559 36046 ft 445 kts 238°
2026-05-08 19:17 24.16020 -67.91055 36051 ft 447 kts 238°
2026-05-08 19:17 24.12359 -67.96565 36057 ft 448 kts 238°
2026-05-08 19:18 24.08691 -68.02079 36058 ft 448 kts 238°
2026-05-08 19:18 24.05008 -68.07598 36066 ft 449 kts 238°
2026-05-08 19:19 24.01327 -68.13117 36068 ft 449 kts 238°
2026-05-08 19:19 23.97641 -68.18631 36063 ft 449 kts 238°
2026-05-08 19:20 23.93951 -68.24147 36065 ft 449 kts 238°
2026-05-08 19:20 23.90818 -68.28735 36071 ft 450 kts 237°
2026-05-08 19:21 23.86974 -68.34132 36074 ft 450 kts 236°
2026-05-08 19:21 23.83114 -68.39507 36077 ft 450 kts 236°
2026-05-08 19:22 23.79272 -68.44889 36079 ft 449 kts 236°